Location: Malvern Link
(52.1333°N, 2.3000°W)
Time: 06:51:05
(UTC+00:00)

QB50P2 - Pass Details

Date: 05 July 2022
Orbit: 590 x 605 km, 97.9° (Epoch: 15 August)

Event Time Altitude Azimuth Distance (km) Brightness Sun altitude
Rises 02:21:24 0° 9° (N) 2,866 ? -10.1°
Reaches altitude 10° 02:23:38 10° 3° (N) 1,960 ? -9.9°
Maximum altitude 02:27:41 44° 292° (WNW) 845 ? -9.6°
Enters shadow 02:31:23 12° 222° (SW) 1,822 ? -9.3°
